WB6TTB Weather Reports


Display with metric or nautical units.
time (UTC)temp
F
wind
direction
speed
MPH
gust
MPH
rain 1hr
in
rain 24hr
in
rain mn
in
humidity
%
barometer
mb
20260508121204 51 0 0.0 0.0 0.00 0.00 0.00 95 1016.9
20260508103004 51 0 0.0 0.0 0.00 0.00 0.00 95 1017.0
20260508091203 51 0 0.0 0.0 0.00 0.00 0.00 95 1017.0
20260508084203 51 0 0.0 0.0 0.00 0.00 0.00 95 1017.0
20260508081803 52 0 0.0 0.0 0.00 0.00 0.00 94 1017.0
20260508080004 52 0 0.0 0.0 0.00 0.00 0.00 94 1017.1
20260508070004 52 0 0.0 0.0 0.00 0.00 0.00 95 1017.0
20260508065403 52 0 0.0 0.0 0.00 0.00 0.00 95 1017.0
20260508061803 52 0 0.0 0.0 0.00 0.00 0.00 95 1016.9
20260508054804 52 0 0.0 0.0 0.00 0.00 0.00 96 1017.0
20260508043003 53 0 0.0 0.0 0.00 0.00 0.00 95 1016.6
20260508041203 53 0 0.0 0.0 0.00 0.00 0.00 94 1016.4
20260508034803 54 0 0.0 0.0 0.00 0.00 0.00 94 1016.2
20260508033604 54 0 0.0 0.0 0.00 0.00 0.00 93 1016.1
20260508014203 62 0 0.0 0.0 0.00 0.00 0.00 82 1015.8
20260508012404 63 0 0.0 0.0 0.00 0.00 0.00 80 1015.8
20260507230004 63 0 0.0 0.0 0.00 0.00 0.00 82 1016.2
20260507201203 61 0 0.0 0.0 0.00 0.00 0.00 84 1017.8
20260507190004 60 0 0.0 0.0 0.00 0.00 0.00 84 1018.3
20260507183004 57 0 0.0 0.0 0.00 0.00 0.00 89 1018.6
20260507171803 54 0 0.0 0.0 0.00 0.00 0.00 93 1018.7
20260507153003 52 0 0.0 0.0 0.00 0.00 0.00 96 1018.6
20260507151803 52 0 0.0 0.0 0.00 0.00 0.00 97 1018.6
20260507143003 52 0 0.0 0.0 0.00 0.00 0.00 97 1018.3